Miscellaneous Local Product
Issued by NWS Hastings, NE

Home | Current Version | Previous Version | Text Only | Print | Product List | Glossary On
Versions: 1 2 3 4 5 6 7 8 9 10 11 12 13 14 15 16 17 18 19 20 21 22 23 24 25 26 27 28 29 30 31 32 33 34 35 36 37 38 39 40 41 42 43 44 45 46 47 48 49 50
000
AXUS43 KGID 291202
MISGRI

GID CWA HOURLY WEATHER ROUNDUP
NATIONAL WEATHER SERVICE HASTINGS NE
700 AM CDT FRI APR 29 2016

NOTE: "FAIR" INDICATES FEW OR NO CLOUDS BELOW 12,000 FEET WITH NO
SIGNIFICANT WEATHER AND/OR OBSTRUCTIONS TO VISIBILITY.

...SOUTH CENTRAL NEBRASKA...

CITY           SKY/WX    TMP DP  RH WIND       PRES   REMARKS
GRAND ISLAND   CLOUDY    40  37  89 NE3       30.09R
HASTINGS       CLOUDY    40  38  93 N6        30.07S
KEARNEY        CLOUDY    39  37  93 N8        30.08S WCI  34
ORD            CLOUDY    41  39  93 N7        30.08F
YORK           CLOUDY    41  39  93 NE6       30.09R
AURORA         CLOUDY    41  40  97 N5        30.08S
LEXINGTON      CLOUDY    41  38  90 N7        30.07F
HOLDREGE       CLOUDY    41  39  93 N3        30.07S
HEBRON         CLOUDY    44  39  82 N9        30.05F

...NEBRASKA PANHANDLE...

CITY           SKY/WX    TMP DP  RH WIND       PRES   REMARKS
CHADRON        CLOUDY    37  35  92 N3        30.11S
ALLIANCE       CLOUDY    36  35  96 NE5       30.07F WCI  32
SCOTTSBLUFF    CLOUDY    36  33  89 NE5       30.08F WCI  32
SIDNEY         CLOUDY    35  34  96 NE8       30.06F FOG     WCI  29

...WESTERN AND NORTH CENTRAL NEBRASKA...

CITY           SKY/WX    TMP DP  RH WIND       PRES   REMARKS
VALENTINE      CLOUDY    39  36  89 NW5       30.11F
AINSWORTH      CLOUDY    39  39  98 N5        30.11R
ONEILL         CLOUDY    40  39  96 NE3       30.12R FOG
BROKEN BOW     CLOUDY    38  36  92 CALM      30.08S
IMPERIAL       CLOUDY    41  38  89 NE8       30.04F
NORTH PLATTE   CLOUDY    39  36  89 NE7       30.08F WCI  34
MCCOOK         MOCLDY    42  40  92 NE10      30.03F

...EASTERN NEBRASKA...

CITY           SKY/WX    TMP DP  RH WIND       PRES   REMARKS
NORFOLK        CLOUDY    42  39  89 N6        30.10F
SO SIOUX CITY  CLOUDY    43  38  82 NE6       30.14S
TEKAMAH        CLOUDY    43  41  93 N8        30.10F
COLUMBUS       CLOUDY    43  34  70 N7        30.09F
ALBION         CLOUDY    41  38  88 N7        30.09F
OMAHA EPPLEY   CLOUDY    45  42  89 N8        30.09F
OFFUTT AFB     CLOUDY    45  42  89 N6        30.08F
MILLARD        CLOUDY    45  40  83 N3        30.09F
LINCOLN        CLOUDY    45  40  82 N12       30.09S
NEBRASKA CITY  CLOUDY    44  42  91 N17       30.05F
BEATRICE       CLOUDY    45  40  83 N13       30.05S
FALLS CITY     CLOUDY    46  39  76 NE10      30.05F

...NORTHERN KANSAS...

CITY           SKY/WX    TMP DP  RH WIND       PRES   REMARKS
GOODLAND       LGT RAIN  39  38  96 NE8       30.01R WCI  33
HILL CITY      CLOUDY    44  42  93 NE15      30.00F
NORTON         PTSUNNY   41  37  87 NE10      30.01S
PHILLIPSBURG   PTCLDY    45  43  93 CALM      30.01F
SMITH CENTER   CLEAR     41  37  87 NE9       30.03F
BELOIT         PTCLDY    43  37  81 CALM      30.08R
HAYS           CLOUDY    45  36  70 E22G30    29.97F
RUSSELL        RAIN      44  43  96 NE25      29.97F FOG
CONCORDIA      CLOUDY    45  39  79 NE7       30.07R
SALINA         RAIN      48  45  89 N15       30.03R
TOPEKA         CLOUDY    48  43  82 NE12      30.02F



USA.gov is the U.S. government's official web portal to all federal, state and local government web resources and services.